AAL407 KEWR-KBOS

Flight info

Callsign AAL407
Flight time 1h 3m
Altitude 21000
Route MERIT ROBUC3
Aircraft A20N/M-SDE2E3FGHIRWXY/LB1

Departure

Time 2026-05-06 17:14
Airport Newark Liberty International Airport (KEWR)

Arrival

Time 2026-05-06 18:17
Airport Boston Logan International Airport (KBOS)
Time Latitude Longitude Altitude Speed Heading
2026-05-06 16:57 40.69632 -74.17319 26 ft 0 kts 155°
2026-05-06 17:04 40.69634 -74.17320 23 ft 1 kts 155°
2026-05-06 17:04 40.69645 -74.17326 28 ft 2 kts 155°
2026-05-06 17:04 40.69660 -74.17336 24 ft 2 kts 133°
2026-05-06 17:04 40.69669 -74.17352 24 ft 2 kts 111°
2026-05-06 17:05 40.69673 -74.17362 26 ft 0 kts 81°
2026-05-06 17:05 40.69671 -74.17370 28 ft 2 kts 73°
2026-05-06 17:05 40.69673 -74.17367 28 ft 1 kts 63°
2026-05-06 17:05 40.69674 -74.17365 26 ft 0 kts 57°
2026-05-06 17:06 40.69681 -74.17354 26 ft 0 kts 45°
2026-05-06 17:09 40.69682 -74.17354 24 ft 1 kts 45°
2026-05-06 17:09 40.69710 -74.17310 28 ft 6 kts 65°
2026-05-06 17:10 40.69733 -74.17240 27 ft 13 kts 57°
2026-05-06 17:10 40.69773 -74.17173 27 ft 0 kts 50°
2026-05-06 17:10 40.69777 -74.17125 24 ft 9 kts 117°
2026-05-06 17:10 40.69709 -74.17067 26 ft 16 kts 153°
2026-05-06 17:11 40.69630 -74.16980 24 ft 17 kts 89°
2026-05-06 17:11 40.69662 -74.16849 23 ft 14 kts 70°
2026-05-06 17:11 40.69697 -74.16741 22 ft 13 kts 51°
2026-05-06 17:11 40.69769 -74.16687 19 ft 13 kts 25°
2026-05-06 17:12 40.69851 -74.16635 20 ft 13 kts 26°
2026-05-06 17:12 40.69930 -74.16585 19 ft 12 kts 26°
2026-05-06 17:12 40.70009 -74.16535 18 ft 13 kts 26°
2026-05-06 17:12 40.70063 -74.16456 19 ft 13 kts 90°
2026-05-06 17:13 40.70004 -74.16386 17 ft 10 kts 191°
2026-05-06 17:13 40.69942 -74.16419 17 ft 9 kts 207°
2026-05-06 17:13 40.69841 -74.16486 20 ft 45 kts 206°
2026-05-06 17:13 40.69267 -74.16844 28 ft 138 kts 205°
2026-05-06 17:14 40.68277 -74.17485 523 ft 176 kts 207°
2026-05-06 17:14 40.67150 -74.18361 1181 ft 203 kts 212°
2026-05-06 17:14 40.65801 -74.19225 1810 ft 227 kts 202°
2026-05-06 17:14 40.64217 -74.19591 2317 ft 236 kts 183°
2026-05-06 17:15 40.62595 -74.19150 2487 ft 244 kts 161°
2026-05-06 17:15 40.61191 -74.17818 2501 ft 259 kts 138°
2026-05-06 17:15 40.60310 -74.15700 2501 ft 273 kts 111°
2026-05-06 17:15 40.60252 -74.13171 2500 ft 284 kts 81°
2026-05-06 17:16 40.61130 -74.10839 2483 ft 289 kts 50°
2026-05-06 17:16 40.62727 -74.09337 2495 ft 288 kts 21°
2026-05-06 17:16 40.64617 -74.08455 2494 ft 289 kts 15°
2026-05-06 17:16 40.66544 -74.07698 2744 ft 289 kts 14°
2026-05-06 17:17 40.68475 -74.06940 3216 ft 290 kts 14°
2026-05-06 17:17 40.70411 -74.06166 3733 ft 292 kts 14°
2026-05-06 17:17 40.72358 -74.05375 4233 ft 294 kts 15°
2026-05-06 17:17 40.74326 -74.04569 4737 ft 297 kts 15°
2026-05-06 17:18 40.76262 -74.03586 5236 ft 301 kts 28°
2026-05-06 17:18 40.77899 -74.01840 5737 ft 306 kts 45°
2026-05-06 17:18 40.79368 -73.99782 6192 ft 311 kts 49°
2026-05-06 17:18 40.80834 -73.97637 6668 ft 319 kts 49°
2026-05-06 17:19 40.82332 -73.95444 7160 ft 325 kts 49°
2026-05-06 17:19 40.83859 -73.93221 7656 ft 328 kts 48°
2026-05-06 17:19 40.85401 -73.90981 8160 ft 332 kts 48°
2026-05-06 17:19 40.86962 -73.88719 8681 ft 334 kts 48°
2026-05-06 17:20 40.88539 -73.86437 9194 ft 338 kts 48°
2026-05-06 17:20 40.90159 -73.84091 9729 ft 358 kts 47°
2026-05-06 17:20 40.91890 -73.81585 10217 ft 376 kts 47°
2026-05-06 17:20 40.93667 -73.79012 10703 ft 382 kts 47°
2026-05-06 17:21 40.95468 -73.76402 11191 ft 389 kts 47°
2026-05-06 17:21 40.97354 -73.73667 11705 ft 413 kts 47°
2026-05-06 17:21 40.99314 -73.70820 12213 ft 423 kts 46°
2026-05-06 17:21 41.01308 -73.67919 12719 ft 428 kts 46°
2026-05-06 17:22 41.03319 -73.64990 13244 ft 431 kts 47°
2026-05-06 17:22 41.05345 -73.62040 13757 ft 435 kts 47°
2026-05-06 17:22 41.07385 -73.59067 14218 ft 438 kts 47°
2026-05-06 17:22 41.09435 -73.56073 14692 ft 440 kts 46°
2026-05-06 17:23 41.11517 -73.53030 15177 ft 452 kts 46°
2026-05-06 17:23 41.13654 -73.49905 15666 ft 461 kts 46°
2026-05-06 17:23 41.15819 -73.46736 16164 ft 465 kts 46°
2026-05-06 17:23 41.17998 -73.43541 16666 ft 468 kts 45°
2026-05-06 17:24 41.20187 -73.40327 17203 ft 471 kts 45°
2026-05-06 17:24 41.22366 -73.37126 17719 ft 475 kts 45°
2026-05-06 17:24 41.24591 -73.33854 18239 ft 479 kts 45°
2026-05-06 17:24 41.26828 -73.30562 18696 ft 482 kts 45°
2026-05-06 17:25 41.29081 -73.27240 19165 ft 485 kts 45°
2026-05-06 17:25 41.31348 -73.23895 19640 ft 489 kts 45°
2026-05-06 17:25 41.33631 -73.20521 20132 ft 492 kts 45°
2026-05-06 17:25 41.35922 -73.17132 20590 ft 494 kts 45°
2026-05-06 17:26 41.38223 -73.13708 20864 ft 500 kts 50°
2026-05-06 17:26 41.39964 -73.09689 20899 ft 503 kts 68°
2026-05-06 17:26 41.40850 -73.05205 20908 ft 502 kts 85°
2026-05-06 17:26 41.40945 -73.00581 20908 ft 499 kts 94°
2026-05-06 17:27 41.40928 -72.95956 20906 ft 500 kts 92°
2026-05-06 17:27 41.41075 -72.91325 20897 ft 500 kts 89°
2026-05-06 17:27 41.41364 -72.86719 20898 ft 499 kts 86°
2026-05-06 17:27 41.41739 -72.82128 20899 ft 498 kts 85°
2026-05-06 17:28 41.42163 -72.77548 20903 ft 498 kts 84°
2026-05-06 17:28 41.42613 -72.72969 20907 ft 499 kts 84°
2026-05-06 17:28 41.43074 -72.68390 20907 ft 499 kts 84°
2026-05-06 17:28 41.43544 -72.63814 20916 ft 499 kts 84°
2026-05-06 17:29 41.44018 -72.59235 20900 ft 498 kts 84°
2026-05-06 17:29 41.44492 -72.54664 20912 ft 497 kts 84°
2026-05-06 17:29 41.44962 -72.50113 20916 ft 493 kts 84°
2026-05-06 17:29 41.45425 -72.45643 20913 ft 481 kts 84°
2026-05-06 17:30 41.45874 -72.41284 20911 ft 468 kts 84°
2026-05-06 17:30 41.46310 -72.37035 20909 ft 459 kts 84°
2026-05-06 17:30 41.46738 -72.32828 20914 ft 458 kts 84°
2026-05-06 17:30 41.47160 -72.28673 20908 ft 457 kts 85°
2026-05-06 17:31 41.47583 -72.24490 20881 ft 453 kts 85°
2026-05-06 17:31 41.47937 -72.20318 20609 ft 443 kts 84°
2026-05-06 17:31 41.48797 -72.16459 20240 ft 441 kts 64°
2026-05-06 17:31 41.50280 -72.12894 19877 ft 439 kts 59°
2026-05-06 17:32 41.51806 -72.09375 19533 ft 438 kts 60°
2026-05-06 17:32 41.53270 -72.05816 19175 ft 437 kts 62°
2026-05-06 17:32 41.54682 -72.02208 18834 ft 442 kts 63°
2026-05-06 17:32 41.56012 -71.98495 18492 ft 445 kts 67°
2026-05-06 17:33 41.57206 -71.94676 18156 ft 446 kts 69°
2026-05-06 17:33 41.58361 -71.90845 17753 ft 444 kts 69°
2026-05-06 17:33 41.59499 -71.87038 17359 ft 439 kts 70°
2026-05-06 17:33 41.60619 -71.83260 16984 ft 435 kts 70°
2026-05-06 17:34 41.61722 -71.79523 16599 ft 432 kts 70°
2026-05-06 17:34 41.62818 -71.75809 16104 ft 424 kts 70°
2026-05-06 17:34 41.63890 -71.72173 15603 ft 417 kts 71°
2026-05-06 17:34 41.64944 -71.68593 15125 ft 410 kts 71°
2026-05-06 17:35 41.65979 -71.65070 14645 ft 404 kts 71°
2026-05-06 17:35 41.67000 -71.61595 14171 ft 399 kts 71°
2026-05-06 17:35 41.68005 -71.58167 13699 ft 393 kts 72°
2026-05-06 17:36 41.69973 -71.51442 12632 ft 383 kts 72°
2026-05-06 17:36 41.70936 -71.48145 12120 ft 378 kts 73°
2026-05-06 17:36 41.71884 -71.44889 11627 ft 373 kts 74°
2026-05-06 17:36 41.72543 -71.42767 11318 ft 373 kts 67°
2026-05-06 17:37 41.74220 -71.38779 11064 ft 362 kts 64°
2026-05-06 17:37 41.75052 -71.36852 11057 ft 362 kts 63°
2026-05-06 17:37 41.76315 -71.33929 11051 ft 362 kts 64°
2026-05-06 17:37 41.77574 -71.31004 11046 ft 363 kts 64°
2026-05-06 17:38 41.78830 -71.28076 11050 ft 362 kts 64°
2026-05-06 17:38 41.80082 -71.25145 11047 ft 362 kts 64°
2026-05-06 17:38 41.81331 -71.22215 11065 ft 362 kts 64°
2026-05-06 17:38 41.82581 -71.19280 11071 ft 362 kts 64°
2026-05-06 17:39 41.83829 -71.16346 11066 ft 362 kts 64°
2026-05-06 17:39 41.85076 -71.13409 11069 ft 362 kts 64°
2026-05-06 17:39 41.86335 -71.10477 11075 ft 363 kts 64°
2026-05-06 17:39 41.87603 -71.07543 11071 ft 364 kts 63°
2026-05-06 17:40 41.88873 -71.04605 11071 ft 364 kts 63°
2026-05-06 17:40 41.90141 -71.01669 11070 ft 364 kts 63°
2026-05-06 17:40 41.91406 -70.98737 11070 ft 362 kts 63°
2026-05-06 17:40 41.92656 -70.95840 10859 ft 355 kts 64°
2026-05-06 17:41 41.93869 -70.93026 10509 ft 351 kts 64°
2026-05-06 17:41 41.95099 -70.90166 10145 ft 348 kts 64°
2026-05-06 17:41 41.96292 -70.87388 9753 ft 347 kts 65°
2026-05-06 17:41 41.97495 -70.84584 9369 ft 345 kts 65°
2026-05-06 17:42 41.98686 -70.81806 8985 ft 342 kts 65°
2026-05-06 17:42 41.99871 -70.79040 8623 ft 340 kts 64°
2026-05-06 17:42 42.01078 -70.76318 8250 ft 340 kts 57°
2026-05-06 17:42 42.02614 -70.73900 8046 ft 339 kts 51°
2026-05-06 17:43 42.04185 -70.71536 8033 ft 339 kts 50°
2026-05-06 17:43 42.05773 -70.69181 8032 ft 339 kts 50°
2026-05-06 17:43 42.07355 -70.66829 8034 ft 340 kts 50°
2026-05-06 17:43 42.08937 -70.64470 8034 ft 339 kts 50°
2026-05-06 17:44 42.10546 -70.62149 7972 ft 340 kts 43°
2026-05-06 17:44 42.12586 -70.60630 7649 ft 334 kts 11°
2026-05-06 17:44 42.14849 -70.60168 7280 ft 326 kts 359°
2026-05-06 17:44 42.17104 -70.59899 6937 ft 325 kts 359°
2026-05-06 17:45 42.19347 -70.59583 6588 ft 323 kts
2026-05-06 17:45 42.21569 -70.59206 6223 ft 319 kts
2026-05-06 17:45 42.23738 -70.58795 5878 ft 309 kts
2026-05-06 17:45 42.25819 -70.58375 5497 ft 296 kts
2026-05-06 17:46 42.27817 -70.57962 5153 ft 285 kts
2026-05-06 17:46 42.29725 -70.57570 4947 ft 271 kts
2026-05-06 17:46 42.31575 -70.57586 4770 ft 265 kts 351°
2026-05-06 17:46 42.33429 -70.57450 4589 ft 269 kts 359°
2026-05-06 17:47 42.35287 -70.57152 4414 ft 268 kts
2026-05-06 17:47 42.37139 -70.56817 4253 ft 269 kts
2026-05-06 17:47 42.38986 -70.56459 4073 ft 268 kts
2026-05-06 17:47 42.40797 -70.56454 3886 ft 253 kts 339°
2026-05-06 17:48 42.42334 -70.57306 3714 ft 227 kts 310°
2026-05-06 17:48 42.43331 -70.58812 3537 ft 208 kts 290°
2026-05-06 17:48 42.44067 -70.60436 3370 ft 204 kts 287°
2026-05-06 17:48 42.44760 -70.62124 3189 ft 206 kts 285°
2026-05-06 17:49 42.45445 -70.63829 3042 ft 206 kts 285°
2026-05-06 17:49 42.46129 -70.65537 3003 ft 207 kts 285°
2026-05-06 17:49 42.46815 -70.67252 3002 ft 207 kts 285°
2026-05-06 17:49 42.47519 -70.68958 3000 ft 210 kts 290°
2026-05-06 17:50 42.48526 -70.70485 3000 ft 227 kts 309°
2026-05-06 17:50 42.49956 -70.71554 2998 ft 242 kts 326°
2026-05-06 17:50 42.51552 -70.72344 2997 ft 246 kts 330°
2026-05-06 17:50 42.53178 -70.73062 2998 ft 246 kts 331°
2026-05-06 17:51 42.54806 -70.73768 2997 ft 246 kts 331°
2026-05-06 17:51 42.56435 -70.74476 2997 ft 246 kts 330°
2026-05-06 17:51 42.58065 -70.75188 2999 ft 246 kts 330°
2026-05-06 17:51 42.59770 -70.75649 2992 ft 260 kts 352°
2026-05-06 17:52 42.61580 -70.75166 2997 ft 269 kts 12°
2026-05-06 17:52 42.63355 -70.74582 2982 ft 249 kts 357°
2026-05-06 17:52 42.64939 -70.74799 2981 ft 214 kts 330°
2026-05-06 17:52 42.66129 -70.75760 2990 ft 188 kts 300°
2026-05-06 17:53 42.66779 -70.77160 2988 ft 167 kts 275°
2026-05-06 17:53 42.66898 -70.78643 2993 ft 153 kts 253°
2026-05-06 17:53 42.66589 -70.79971 2998 ft 145 kts 236°
2026-05-06 17:53 42.65977 -70.81050 2996 ft 144 kts 225°
2026-05-06 17:54 42.65201 -70.81907 2999 ft 144 kts 215°
2026-05-06 17:54 42.64347 -70.82617 2998 ft 144 kts 213°
2026-05-06 17:54 42.63474 -70.83288 2995 ft 144 kts 212°
2026-05-06 17:54 42.62626 -70.83915 2993 ft 135 kts 212°
2026-05-06 17:55 42.61808 -70.84513 2992 ft 133 kts 212°
2026-05-06 17:55 42.60992 -70.85106 3000 ft 133 kts 211°
2026-05-06 17:55 42.60170 -70.85698 3008 ft 140 kts 211°
2026-05-06 17:55 42.59288 -70.86334 2997 ft 142 kts 212°
2026-05-06 17:56 42.58424 -70.86951 2998 ft 143 kts 212°
2026-05-06 17:56 42.57546 -70.87578 3000 ft 143 kts 212°
2026-05-06 17:56 42.56657 -70.88212 3013 ft 143 kts 209°
2026-05-06 17:56 42.55774 -70.88837 2995 ft 147 kts 208°
2026-05-06 17:57 42.54863 -70.89483 2996 ft 149 kts 209°
2026-05-06 17:57 42.53941 -70.90138 2994 ft 150 kts 210°
2026-05-06 17:57 42.53015 -70.90795 3001 ft 150 kts 210°
2026-05-06 17:57 42.52090 -70.91452 3005 ft 150 kts 210°
2026-05-06 17:58 42.51168 -70.92109 3005 ft 149 kts 210°
2026-05-06 17:58 42.50251 -70.92752 2988 ft 149 kts 208°
2026-05-06 17:58 42.49325 -70.93390 3002 ft 150 kts 208°
2026-05-06 17:58 42.48387 -70.94017 3000 ft 151 kts 208°
2026-05-06 17:59 42.47442 -70.94637 2993 ft 151 kts 207°
2026-05-06 17:59 42.46493 -70.95224 3003 ft 149 kts 206°
2026-05-06 17:59 42.45545 -70.95788 2945 ft 146 kts 204°
2026-05-06 17:59 42.44622 -70.96255 2987 ft 141 kts 202°
2026-05-06 18:00 42.43667 -70.96714 3045 ft 146 kts 204°
2026-05-06 18:00 42.42757 -70.97257 3035 ft 143 kts 208°
2026-05-06 18:00 42.41838 -70.97920 2860 ft 152 kts 207°
2026-05-06 18:00 42.40851 -70.98326 2759 ft 149 kts 203°
2026-05-06 18:01 42.39827 -70.98811 2105 ft 161 kts 203°
2026-05-06 18:01 42.38733 -70.99389 1428 ft 177 kts 201°
2026-05-06 18:01 42.37545 -71.00002 992 ft 187 kts 199°
2026-05-06 18:01 42.36296 -71.00607 905 ft 193 kts 199°
2026-05-06 18:02 42.35055 -71.01237 1180 ft 186 kts 199°
2026-05-06 18:02 42.33840 -71.01817 1679 ft 185 kts 199°
2026-05-06 18:02 42.32623 -71.02363 2179 ft 184 kts 200°
2026-05-06 18:02 42.31404 -71.02866 2667 ft 182 kts 200°
2026-05-06 18:03 42.30309 -71.03624 2948 ft 176 kts 224°
2026-05-06 18:03 42.29566 -71.04931 2990 ft 175 kts 234°
2026-05-06 18:03 42.28934 -71.06333 2989 ft 174 kts 236°
2026-05-06 18:03 42.28353 -71.07769 2985 ft 175 kts 242°
2026-05-06 18:04 42.27964 -71.09342 2978 ft 180 kts 255°
2026-05-06 18:04 42.28229 -71.11067 2993 ft 203 kts 289°
2026-05-06 18:04 42.29314 -71.12442 3000 ft 228 kts 317°
2026-05-06 18:04 42.30761 -71.13412 2990 ft 235 kts 324°
2026-05-06 18:05 42.32328 -71.14159 2989 ft 244 kts 336°
2026-05-06 18:05 42.34005 -71.14612 2989 ft 247 kts 340°
2026-05-06 18:05 42.35695 -71.15026 2987 ft 246 kts 340°
2026-05-06 18:05 42.37384 -71.15443 2985 ft 247 kts 340°
2026-05-06 18:06 42.39063 -71.15858 2994 ft 250 kts 340°
2026-05-06 18:06 42.40785 -71.16284 2993 ft 253 kts 340°
2026-05-06 18:06 42.42518 -71.16678 2995 ft 253 kts 343°
2026-05-06 18:06 42.44266 -71.16952 2978 ft 252 kts 345°
2026-05-06 18:07 42.46013 -71.17200 3006 ft 253 kts 346°
2026-05-06 18:07 42.47770 -71.17491 3001 ft 255 kts 345°
2026-05-06 18:07 42.49532 -71.17833 2995 ft 256 kts 345°
2026-05-06 18:07 42.51288 -71.18185 2980 ft 254 kts 345°
2026-05-06 18:08 42.53045 -71.18451 2981 ft 256 kts 350°
2026-05-06 18:08 42.54829 -71.18557 2976 ft 258 kts 352°
2026-05-06 18:08 42.56624 -71.18557 2963 ft 258 kts
2026-05-06 18:08 42.58250 -71.17763 2980 ft 243 kts 32°
2026-05-06 18:09 42.59342 -71.16099 2971 ft 231 kts 72°
2026-05-06 18:09 42.59587 -71.14116 2941 ft 198 kts 107°
2026-05-06 18:09 42.59342 -71.12351 2970 ft 185 kts 119°
2026-05-06 18:09 42.58915 -71.10732 2972 ft 180 kts 126°
2026-05-06 18:10 42.58396 -71.09200 2991 ft 178 kts 130°
2026-05-06 18:10 42.57848 -71.07693 2989 ft 178 kts 130°
2026-05-06 18:10 42.57304 -71.06177 2987 ft 179 kts 129°
2026-05-06 18:10 42.56777 -71.04638 2990 ft 180 kts 127°
2026-05-06 18:11 42.56261 -71.03063 2989 ft 185 kts 127°
2026-05-06 18:11 42.55750 -71.01442 2997 ft 188 kts 126°
2026-05-06 18:11 42.55248 -70.99806 2829 ft 187 kts 124°
2026-05-06 18:11 42.54733 -70.98226 2478 ft 178 kts 131°
2026-05-06 18:12 42.53952 -70.97028 2128 ft 163 kts 154°
2026-05-06 18:12 42.52953 -70.96437 1789 ft 154 kts 173°
2026-05-06 18:12 42.51905 -70.96189 1702 ft 153 kts 180°
2026-05-06 18:12 42.50847 -70.96109 1696 ft 152 kts 184°
2026-05-06 18:13 42.49810 -70.96108 1687 ft 147 kts 184°
2026-05-06 18:13 42.48823 -70.96128 1680 ft 139 kts 185°
2026-05-06 18:13 42.47864 -70.96152 1685 ft 138 kts 184°
2026-05-06 18:13 42.46898 -70.96167 1694 ft 137 kts 186°
2026-05-06 18:14 42.45963 -70.96191 1686 ft 131 kts 189°
2026-05-06 18:14 42.45085 -70.96434 1683 ft 126 kts 199°
2026-05-06 18:14 42.44264 -70.96780 1511 ft 122 kts 200°
2026-05-06 18:14 42.43479 -70.97139 1328 ft 120 kts 199°
2026-05-06 18:15 42.42686 -70.97511 1159 ft 119 kts 201°
2026-05-06 18:15 42.41921 -70.97885 984 ft 119 kts 199°
2026-05-06 18:15 42.41114 -70.98272 825 ft 124 kts 200°
2026-05-06 18:15 42.40303 -70.98665 658 ft 123 kts 198°
2026-05-06 18:16 42.39503 -70.99049 503 ft 123 kts 199°
2026-05-06 18:16 42.38685 -70.99446 334 ft 124 kts 201°
2026-05-06 18:16 42.37871 -70.99856 173 ft 126 kts 199°
2026-05-06 18:16 42.37074 -71.00234 47 ft 117 kts 198°
2026-05-06 18:17 42.36366 -71.00576 31 ft 88 kts 199°
2026-05-06 18:17 42.36152 -71.00824 27 ft 10 kts 295°
2026-05-06 18:17 42.36177 -71.00890 29 ft 8 kts 297°
2026-05-06 18:17 42.36181 -71.00899 29 ft 0 kts 296°
2026-05-06 18:18 42.36187 -71.00917 29 ft 12 kts 296°
2026-05-06 18:18 42.36234 -71.01051 29 ft 18 kts 292°
2026-05-06 18:18 42.36286 -71.01202 31 ft 18 kts 299°
2026-05-06 18:18 42.36343 -71.01322 28 ft 16 kts 303°
2026-05-06 18:19 42.36405 -71.01396 27 ft 7 kts 10°
2026-05-06 18:19 42.36460 -71.01368 28 ft 10 kts 22°
2026-05-06 18:19 42.36529 -71.01332 27 ft 10 kts 13°
2026-05-06 18:19 42.36566 -71.01361 27 ft 3 kts 298°
2026-05-06 18:20 42.36579 -71.01395 27 ft 0 kts 296°